Flag for Norway Weather past 2 weeks in Nøtterøy, Norway

Now
50 °F

Cool.


Feels Like: 50 °F
Forecast: 52 / 65 °F
Wind: 2 mph from Northwest

Location: Torp

Current Time: Aug 1, 2015 at 2:20:18 AM

Latest Report: Aug 1, 2015 at 1:50 AM


Visibility: N/A

Pressure: 29.89 "Hg

Humidity: 88%

Dew point: 46 °F

Location of NøtterøyLocation

Historic Weather in Nøtterøy — Graph

°F

Nøtterøy temperature yesterday

Maximum temperature yesterday: 64 °F (at 2:50 PM)
Minimum temperature yesterday: 52 °F (at 11:20 PM)
Average temperature yesterday: 59 °F

Past Weeks' High & Low Weather Summary

 TemperatureHumidityPressure
High70 °F (Jul 22, 2:20 PM)100% (Jul 18, 4:20 AM)30.07 "Hg (Jul 18, 4:20 AM)
Low48 °F (Jul 17, 1:50 AM)35% (Jul 23, 3:50 PM)29.36 "Hg (Jul 29, 2:20 PM)
Average58 °F78%29.65 "Hg
* Reported Jul 17 12:20 AM — Aug 1 12:50 AM, Nøtterøy, Weather by CustomWeather, © 2015

Note: Actual official high and low records may vary slightly from our data, if they occured in-between our weather recording intervals... More about our weather records

Advertising

Nøtterøy weather history for previous 24 hours

 ConditionsComfort  
Time TempWeatherWind HumidityBarometerVisibility
12:50 AM
Sat, Aug 1
50 °FCool.1 mph94%29.89 "HgN/A
12:20 AM50 °FCool.No wind94%29.86 "HgN/A
11:50 PM
Fri, Jul 31
52 °FCool.2 mph88%29.86 "HgN/A
11:20 PM52 °FCool.2 mph88%29.86 "HgN/A
10:50 PM54 °FClear.1 mph82%29.86 "Hg10 mi
10:20 PM55 °FSunny.2 mph77%29.86 "Hg10 mi
9:50 PM57 °FSunny.7 mph72%29.83 "Hg10 mi
9:20 PM59 °FSunny.7 mph63%29.83 "Hg10 mi
8:50 PM59 °FSunny.9 mph63%29.83 "Hg10 mi
8:20 PM61 °FSunny.13 mph63%29.83 "Hg10 mi
7:50 PM61 °FSunny.13 mph72%29.83 "Hg10 mi
7:20 PM63 °FPassing clouds.10 mph64%29.83 "HgN/A
6:50 PM63 °FScattered clouds.13 mph64%29.83 "HgN/A
6:20 PM63 °FScattered showers. Scattered clouds.13 mph59%29.83 "HgN/A
5:50 PM63 °FScattered clouds.14 mph59%29.83 "HgN/A
5:20 PM64 °FScattered clouds.13 mph56%29.83 "HgN/A
4:50 PM64 °FScattered clouds.5 mph56%29.80 "HgN/A
4:20 PM64 °FScattered clouds.2 mph56%29.80 "HgN/A
3:50 PM64 °FScattered clouds.2 mph52%29.80 "HgN/A
3:20 PM63 °FScattered clouds.2 mph56%29.80 "HgN/A
2:50 PM64 °FScattered clouds.6 mph56%29.80 "HgN/A
2:20 PM63 °FScattered clouds.10 mph59%29.80 "HgN/A
1:50 PM63 °FScattered clouds.9 mph59%29.80 "HgN/A
1:20 PM59 °FScattered clouds.13 mph68%29.80 "HgN/A
12:50 PM61 °FScattered clouds.14 mph72%29.80 "HgN/A
12:20 PM61 °FScattered clouds.13 mph68%29.77 "HgN/A
11:50 AM59 °FBroken clouds.15 mph77%29.77 "HgN/A
11:20 AM59 °FPartly sunny.14 mph72%29.77 "HgN/A
10:50 AM61 °FBroken clouds.12 mph68%29.77 "HgN/A
10:20 AM59 °FScattered clouds.16 mph72%29.74 "HgN/A
9:20 AM61 °FScattered clouds.15 mph72%29.71 "HgN/A
8:50 AM59 °FScattered clouds.15 mph72%29.71 "HgN/A
8:20 AM59 °FPassing clouds.15 mph77%29.71 "HgN/A
7:50 AM57 °FSunny.13 mph82%29.68 "Hg10 mi
7:20 AM57 °FScattered clouds.10 mph77%29.68 "HgN/A
6:50 AM55 °FSunny.8 mph77%29.68 "Hg10 mi
6:20 AM55 °FScattered clouds.10 mph77%29.65 "HgN/A
5:50 AM55 °FClear.10 mph77%29.65 "Hg10 mi
5:20 AM55 °FClear.8 mph77%29.65 "Hg10 mi
4:50 AM55 °FOvercast.8 mph82%29.65 "HgN/A
4:20 AM55 °FOvercast.6 mph88%29.65 "HgN/A
3:50 AM55 °FOvercast.2 mph88%29.62 "HgN/A
3:20 AM55 °FPartly cloudy.2 mph88%29.62 "HgN/A
2:50 AM55 °FPassing clouds.2 mph94%29.62 "HgN/A
2:20 AM55 °FPassing clouds.3 mph94%29.62 "HgN/A
Weather by CustomWeather, © 2015

See weather overviewHow to use our weather pages